• In Russia
  • List of Countries
  • For 7 days
  • Water Temperature
  • Satellite Maps
  • Weather Map
  • Weather Widgets
  • user-avatar
    Login

    Hourly Weather Ventspils

    Today, 17 August, Friday

    Time Temperature Precipitation Wind Pressure Humidity
    00:00 +16°C° 0 mm 3 mps 764 mmHg 89%
    01:00 +15°C° 0 mm 4 mps 764 mmHg 88%
    02:00 +15°C° 0 mm 4 mps 764 mmHg 89%
    03:00 +14°C° 0 mm 4 mps 764 mmHg 89%
    04:00 +14°C° 0 mm 4 mps 764 mmHg 89%
    05:00 +17°C° 0 mm 4 mps 764 mmHg 84%
    06:00 +18°C° 0 mm 4 mps 764 mmHg 79%
    07:00 +20°C° 0 mm 4 mps 764 mmHg 74%
    08:00 +21°C° 0 mm 4 mps 764 mmHg 68%
    09:00 +23°C° 0 mm 4 mps 764 mmHg 62%
    10:00 +26°C° 0 mm 4 mps 764 mmHg 56%
    11:00 +26°C° 0 mm 4 mps 763 mmHg 55%
    12:00 +27°C° 0 mm 4 mps 763 mmHg 54%
    13:00 +27°C° 0 mm 4 mps 763 mmHg 53%
    14:00 +27°C° 0.1 mm 4 mps 763 mmHg 56%
    15:00 +26°C° 0.1 mm 4 mps 763 mmHg 59%
    16:00 +26°C° 0.1 mm 4 mps 762 mmHg 63%
    17:00 +24°C° 0 mm 3 mps 762 mmHg 70%
    18:00 +22°C° 0 mm 3 mps 762 mmHg 77%
    19:00 +20°C° 0 mm 3 mps 762 mmHg 84%
    20:00 +20°C° 0 mm 3 mps 762 mmHg 85%
    21:00 +19°C° 0 mm 3 mps 762 mmHg 87%
    22:00 +18°C° 0 mm 3 mps 762 mmHg 89%
    23:00 +18°C° 0 mm 4 mps 762 mmHg 90%

    Tomorrow, 18 August, Saturday

    Time Temperature Precipitation Wind Pressure Humidity
    00:00 +18°C° 0 mm 4 mps 761 mmHg 92%
    01:00 +17°C° 0 mm 4 mps 761 mmHg 93%
    02:00 +17°C° 0 mm 4 mps 761 mmHg 93%
    03:00 +17°C° 0 mm 4 mps 761 mmHg 93%
    04:00 +17°C° 0 mm 4 mps 762 mmHg 93%
    05:00 +17°C° 0.2 mm 5 mps 762 mmHg 88%
    06:00 +19°C° 0.2 mm 5 mps 762 mmHg 84%
    07:00 +20°C° 0.2 mm 5 mps 762 mmHg 79%
    08:00 +22°C° 0.2 mm 4 mps 762 mmHg 76%
    09:00 +23°C° 0.2 mm 4 mps 762 mmHg 72%
    10:00 +26°C° 0.2 mm 4 mps 762 mmHg 68%
    11:00 +26°C° 0.4 mm 4 mps 762 mmHg 70%
    12:00 +25°C° 0.4 mm 4 mps 762 mmHg 73%
    13:00 +25°C° 0.4 mm 3 mps 762 mmHg 75%
    14:00 +25°C° 0.1 mm 3 mps 762 mmHg 74%
    15:00 +23°C° 0.1 mm 4 mps 762 mmHg 74%
    16:00 +23°C° 0.1 mm 4 mps 762 mmHg 74%
    17:00 +21°C° 0 mm 4 mps 761 mmHg 79%
    18:00 +19°C° 0 mm 4 mps 761 mmHg 84%
    19:00 +17°C° 0 mm 5 mps 761 mmHg 89%
    20:00 +16°C° 0 mm 5 mps 761 mmHg 90%
    21:00 +15°C° 0 mm 5 mps 761 mmHg 90%
    22:00 +15°C° 0 mm 6 mps 762 mmHg 91%
    23:00 +15°C° 0 mm 6 mps 761 mmHg 90%

    Day after tomorrow, 19 August, Sunday

    Time Temperature Precipitation Wind Pressure Humidity
    00:00 +15°C° 0 mm 6 mps 761 mmHg 90%
    01:00 +15°C° 0 mm 6 mps 761 mmHg 89%
    02:00 +15°C° 0 mm 6 mps 761 mmHg 89%
    03:00 +16°C° 0 mm 6 mps 761 mmHg 89%
    04:00 +16°C° 0 mm 6 mps 761 mmHg 88%
    05:00 +17°C° 0 mm 7 mps 761 mmHg 86%
    06:00 +18°C° 0 mm 7 mps 761 mmHg 83%
    07:00 +20°C° 0 mm 7 mps 761 mmHg 80%
    08:00 +20°C° 0.1 mm 7 mps 761 mmHg 79%
    09:00 +20°C° 0.1 mm 7 mps 761 mmHg 78%
    10:00 +21°C° 0.1 mm 7 mps 761 mmHg 77%
    11:00 +21°C° 0.2 mm 7 mps 761 mmHg 76%
    12:00 +21°C° 0.2 mm 7 mps 761 mmHg 76%
    13:00 +21°C° 0.2 mm 7 mps 761 mmHg 76%
    14:00 +21°C° 0.2 mm 7 mps 761 mmHg 76%
    15:00 +21°C° 0.2 mm 7 mps 761 mmHg 77%
    16:00 +21°C° 0.2 mm 7 mps 761 mmHg 78%
    17:00 +20°C° 0.3 mm 6 mps 761 mmHg 82%
    18:00 +19°C° 0.3 mm 5 mps 761 mmHg 87%
    19:00 +18°C° 0.3 mm 4 mps 761 mmHg 91%
    20:00 +18°C° 0.2 mm 4 mps 761 mmHg 93%
    21:00 +18°C° 0.2 mm 4 mps 761 mmHg 94%
    22:00 +17°C° 0.2 mm 4 mps 761 mmHg 96%
    23:00 +17°C° 0.1 mm 3 mps 761 mmHg 96%

    20 August, Monday

    Time Temperature Precipitation Wind Pressure Humidity
    00:00 +17°C° 0.1 mm 3 mps 761 mmHg 95%
    01:00 +17°C° 0.1 mm 3 mps 761 mmHg 95%
    02:00 +17°C° 0 mm 3 mps 760 mmHg 95%
    03:00 +17°C° 0 mm 3 mps 760 mmHg 95%
    04:00 +17°C° 0 mm 3 mps 760 mmHg 95%
    05:00 +17°C° 0 mm 3 mps 760 mmHg 93%
    06:00 +18°C° 0 mm 3 mps 761 mmHg 90%
    07:00 +19°C° 0 mm 3 mps 761 mmHg 88%
    08:00 +20°C° 0 mm 3 mps 761 mmHg 79%
    09:00 +21°C° 0 mm 4 mps 761 mmHg 71%
    10:00 +22°C° 0 mm 4 mps 761 mmHg 63%
    11:00 +22°C° 0 mm 4 mps 762 mmHg 60%
    12:00 +22°C° 0 mm 4 mps 762 mmHg 58%
    13:00 +22°C° 0 mm 4 mps 762 mmHg 56%
    14:00 +22°C° 0 mm 3 mps 762 mmHg 57%
    15:00 +21°C° 0 mm 3 mps 762 mmHg 59%
    16:00 +21°C° 0 mm 3 mps 762 mmHg 61%
    17:00 +19°C° 0 mm 2 mps 762 mmHg 68%
    18:00 +18°C° 0 mm 2 mps 762 mmHg 74%
    19:00 +18°C° 0 mm 1 mps 762 mmHg 81%
    20:00 +16°C° 0 mm 1 mps 762 mmHg 82%
    21:00 +16°C° 0 mm 1 mps 762 mmHg 83%
    22:00 +16°C° 0 mm 1 mps 762 mmHg 83%
    23:00 +16°C° 0 mm 1 mps 762 mmHg 83%

    21 August, Tuesday

    Time Temperature Precipitation Wind Pressure Humidity
    00:00 +16°C° 0 mm 2 mps 762 mmHg 83%
    01:00 +16°C° 0 mm 2 mps 762 mmHg 82%
    02:00 +16°C° 0.2 mm 3 mps 761 mmHg 83%
    03:00 +16°C° 0.2 mm 3 mps 761 mmHg 85%
    04:00 +15°C° 0.2 mm 4 mps 761 mmHg 86%
    05:00 +15°C° 0.7 mm 4 mps 760 mmHg 88%
    06:00 +17°C° 0.7 mm 4 mps 760 mmHg 90%
    07:00 +16°C° 0.7 mm 5 mps 760 mmHg 92%
    08:00 +17°C° 0.4 mm 5 mps 759 mmHg 90%
    09:00 +19°C° 0.4 mm 5 mps 759 mmHg 88%
    10:00 +20°C° 0.4 mm 5 mps 759 mmHg 86%
    11:00 +21°C° 0.3 mm 6 mps 759 mmHg 85%
    12:00 +21°C° 0.3 mm 6 mps 758 mmHg 83%
    13:00 +22°C° 0.3 mm 6 mps 758 mmHg 81%
    14:00 +22°C° 0.2 mm 6 mps 758 mmHg 81%
    15:00 +21°C° 0.2 mm 6 mps 758 mmHg 82%
    16:00 +21°C° 0.2 mm 6 mps 758 mmHg 82%
    17:00 +20°C° 0.1 mm 5 mps 758 mmHg 86%
    18:00 +19°C° 0.1 mm 5 mps 758 mmHg 90%
    19:00 +18°C° 0.1 mm 4 mps 758 mmHg 94%
    20:00 +18°C° 0 mm 4 mps 758 mmHg 94%
    21:00 +18°C° 0 mm 4 mps 758 mmHg 95%
    22:00 +17°C° 0 mm 4 mps 758 mmHg 95%
    23:00 +17°C° 0 mm 4 mps 758 mmHg 94%

    22 August, Wednesday

    Time Temperature Precipitation Wind Pressure Humidity
    00:00 +17°C° 0 mm 4 mps 758 mmHg 93%
    01:00 +17°C° 0 mm 4 mps 758 mmHg 92%
    02:00 +15°C° 0 mm 4 mps 758 mmHg 92%
    03:00 +15°C° 0 mm 5 mps 758 mmHg 93%
    04:00 +15°C° 0 mm 5 mps 757 mmHg 93%
    05:00 +16°C° 0.1 mm 6 mps 757 mmHg 90%
    06:00 +19°C° 0.1 mm 6 mps 757 mmHg 88%
    07:00 +20°C° 0.1 mm 7 mps 757 mmHg 85%
    08:00 +20°C° 0.1 mm 7 mps 757 mmHg 80%
    09:00 +21°C° 0.1 mm 8 mps 757 mmHg 75%
    10:00 +21°C° 0.1 mm 8 mps 757 mmHg 70%
    11:00 +21°C° 0 mm 8 mps 757 mmHg 68%
    12:00 +21°C° 0 mm 8 mps 757 mmHg 66%
    13:00 +21°C° 0 mm 8 mps 757 mmHg 64%
    14:00 +20°C° 0 mm 8 mps 757 mmHg 63%
    15:00 +20°C° 0 mm 7 mps 757 mmHg 63%
    16:00 +20°C° 0 mm 7 mps 757 mmHg 63%
    17:00 +18°C° 0 mm 7 mps 757 mmHg 66%
    18:00 +17°C° 0 mm 6 mps 758 mmHg 69%
    19:00 +16°C° 0 mm 6 mps 758 mmHg 72%
    20:00 +16°C° 0.1 mm 7 mps 758 mmHg 73%
    21:00 +16°C° 0.1 mm 7 mps 759 mmHg 74%
    22:00 +16°C° 0.1 mm 8 mps 759 mmHg 75%
    23:00 +15°C° 0.1 mm 7 mps 760 mmHg 79%
    Show more